FLOCK 2K-43

Last updated on Wed Feb 14 2018 16:20:53 GMT+0000 (Coordinated Universal Time)

1 42874U 17042BB 18044.94730447 .00001674 00000-0 52819-4 0 9991 2 42874 96.9930 307.5889 0012464 180.7464 179.3763 15.34103197 32702

Satellite not in orbit

FLOCK 2K-43